This is the latest recevied weather packets stored in our database for station/object R2AKT-13. If no packets are shown the sender has not sent any weather packets the latest 10 day(s).
| Time | Temp. | Humidity | Pressure | Rain* | Wind** | Luminosity | Snow |
|---|---|---|---|---|---|---|---|
| 1788600306 | 14.44° C | 82% | 967.3 hPa | - | 4.47 m/s, 201° | - | - |
| 1788599786 | 13.89° C | 83% | 966.9 hPa | - | 5.36 m/s, 188° | - | - |
| 1788599241 | 14.44° C | 82% | 967.2 hPa | - | 6.26 m/s, 188° | - | - |
| 1788598651 | 14.44° C | 81% | 967.1 hPa | - | 3.58 m/s, 180° | - | - |
| 1788598141 | 14.44° C | 81% | 967.1 hPa | - | 4.92 m/s, 186° | - | - |
| 1788597565 | 13.89° C | 81% | 967.4 hPa | - | 4.47 m/s, 186° | - | - |
| 1788597016 | 13.89° C | 81% | 967.6 hPa | - | 5.81 m/s, 182° | - | - |
| 1788596491 | 14.44° C | 80% | 967.6 hPa | - | 4.47 m/s, 192° | - | - |
| 1788595986 | 13.89° C | 80% | 967.8 hPa | - | 4.47 m/s, 186° | - | - |
| 1788595505 | 13.89° C | 80% | 967.8 hPa | - | 6.71 m/s, 179° | - | - |
| 1788594921 | 13.89° C | 82% | 968.2 hPa | - | 4.92 m/s, 175° | - | - |
| 1788594346 | 13.33° C | 83% | 968.2 hPa | - | 4.92 m/s, 175° | - | - |
| 1788593816 | 13.33° C | 83% | 968.4 hPa | - | 8.05 m/s, 179° | - | - |
| 1788593306 | 13.33° C | 83% | 968.8 hPa | - | 6.26 m/s, 173° | - | - |
| 1788592765 | 13.33° C | 83% | 969.2 hPa | - | 4.92 m/s, 170° | - | - |
| 1788592265 | 12.78° C | 83% | 968.8 hPa | - | 6.26 m/s, 162° | - | - |
| 1788591741 | 12.78° C | 83% | 969.8 hPa | - | 6.71 m/s, 166° | - | - |
| 1788591200 | 12.78° C | 83% | 970.1 hPa | - | 7.15 m/s, 174° | - | - |
| 1788590605 | 12.78° C | 83% | 970.5 hPa | - | 6.71 m/s, 166° | - | - |
| 1788590011 | 12.78° C | 84% | 970.4 hPa | - | 7.15 m/s, 166° | - | - |
| 1788589471 | 12.78° C | 84% | 971.1 hPa | - | 5.36 m/s, 164° | - | - |
| 1788588951 | 12.78° C | 84% | 971.6 hPa | - | 2.24 m/s, 179° | - | - |
| 1788588371 | 12.22° C | 84% | 971.8 hPa | - | 5.36 m/s, 170° | - | - |
| 1788587791 | 12.22° C | 84% | 972.3 hPa | - | 5.36 m/s, 168° | - | - |
| 1788587311 | 12.22° C | 84% | 972.5 hPa | - | 3.13 m/s, 158° | - | - |
* Rain since midnight (hover to see other rain measurements)
** Current wind speed in m/s (hover to see current wind gust speed)